Location: New Frontier Mobile Home Park
(32.8448°N, 116.9675°W)
Time: 22:35:43
(UTC+00:00)

Cosmos 1867 - Pass Details

Date: 14 July 2020
Orbit: 778 x 798 km, 65.0° (Epoch: 05 August)

Event Time Altitude Azimuth Distance (km) Brightness Sun altitude
Exits shadow 10:30:42 34° 153° (SSE) 1,283 4.4 -24.0°
Maximum altitude 10:32:17 43° 112° (ESE) 1,105 4.4 -23.7°
Drops below altitude 10° 10:37:23 10° 43° (NE) 2,363 7.2 -23.0°
Sets 10:39:55 0° 36° (NE) 3,298 8.3 -22.7°
